Home > Weather > Bilbao > Past weeks

Flag for Spain Past Weather in Bilbao, Spain — Yesterday and Last 2 Weeks

Now
63 °F

Mild.


Feels Like: 63 °F
Forecast: 66 / 79 °F
Wind: 1 mph from North

Location: Bilbao / Sondica

Current Time: Jul 29, 2016 at 2:22:05 AM

Latest Report: Jul 29, 2016 at 1:30 AM


Visibility: 4 mi

Pressure: 30.12 "Hg

Humidity: 94%

Dew Point: 61 °F

Location of BilbaoLocation

Past Weather in Bilbao — Graph

°F

Bilbao Temperature Yesterday

Maximum temperature yesterday: 79 °F (at 5:30 PM)
Minimum temperature yesterday: 66 °F (at 4:30 AM)
Average temperature yesterday: 71 °F

High & Low Weather Summary for the Past Weeks

 TemperatureHumidityPressure
High106 °F (Jul 18, 4:30 PM)100% (Jul 14, 5:30 AM)30.39 "Hg (Jul 14, 5:30 AM)
Low52 °F (Jul 15, 7:00 AM)17% (Jul 18, 4:00 PM)29.89 "Hg (Jul 18, 6:00 PM)
Average72 °F71%30.16 "Hg
* Reported Jul 14 5:00 AM — Jul 29 1:00 AM, Bilbao, Weather by CustomWeather, © 2016

Note: Actual official high and low records may vary slightly from our data, if they occured in-between our weather recording intervals... More about our weather records

Advertising

Bilbao Weather History for the Previous 24 Hours

Scroll right to see more
 ConditionsComfort  
Time TempWeatherWind HumidityBarometerVisibility
1:00 AM
Fri, Jul 29
64 °FMild.1 mph88%30.12 "Hg4 mi
12:30 AM64 °FMild.No wind88%30.12 "Hg5 mi
12:00 AM64 °FClear.No wind88%30.12 "Hg10 mi
11:30 PM
Thu, Jul 28
66 °FClear.No wind83%30.12 "Hg10 mi
11:00 PM68 °FClear.1 mph78%30.12 "Hg10 mi
10:30 PM70 °FSunny.No wind73%30.12 "Hg10 mi
10:00 PM72 °FSunny.2 mph69%30.12 "Hg10 mi
9:30 PM72 °FSunny.3 mph69%30.12 "Hg10 mi
9:00 PM73 °FPassing clouds.6 mph65%30.12 "HgN/A
8:30 PM75 °FPassing clouds.7 mph61%30.12 "HgN/A
8:00 PM77 °FPassing clouds.8 mph57%30.12 "HgN/A
7:30 PM77 °FPassing clouds.9 mph57%30.12 "HgN/A
7:00 PM77 °FPassing clouds.8 mph61%30.12 "HgN/A
6:30 PM77 °FPassing clouds.8 mph61%30.12 "HgN/A
6:00 PM77 °FScattered clouds.8 mph61%30.12 "HgN/A
5:30 PM79 °FScattered clouds.7 mph58%30.12 "HgN/A
5:00 PM77 °FScattered clouds.1 mph61%30.12 "HgN/A
4:30 PM77 °FScattered clouds.5 mph57%30.12 "HgN/A
4:00 PM75 °FScattered clouds.5 mph61%30.15 "HgN/A
3:30 PM75 °FBroken clouds.2 mph61%30.15 "HgN/A
3:00 PM75 °FBroken clouds.2 mph65%30.15 "HgN/A
2:30 PM75 °FBroken clouds.1 mph61%30.18 "HgN/A
2:00 PM73 °FBroken clouds.3 mph65%30.18 "HgN/A
1:30 PM73 °FBroken clouds.1 mph65%30.18 "HgN/A
1:00 PM73 °FBroken clouds.2 mph65%30.18 "HgN/A
12:30 PM73 °FBroken clouds.1 mph65%30.18 "HgN/A
12:00 PM72 °FBroken clouds.No wind69%30.18 "HgN/A
11:30 AM72 °FBroken clouds.No wind73%30.18 "HgN/A
11:00 AM72 °FBroken clouds.No wind73%30.18 "HgN/A
10:30 AM70 °FBroken clouds.No wind78%30.18 "HgN/A
10:00 AM70 °FBroken clouds.1 mph78%30.18 "HgN/A
9:30 AM68 °FBroken clouds.2 mph78%30.18 "HgN/A
9:00 AM68 °FBroken clouds.1 mph78%30.18 "HgN/A
8:30 AM68 °FBroken clouds.2 mph78%30.18 "HgN/A
8:00 AM66 °FBroken clouds.2 mph83%30.18 "HgN/A
7:30 AM66 °FPartly cloudy.2 mph83%30.18 "HgN/A
7:00 AM66 °FPartly cloudy.2 mph83%30.18 "HgN/A
6:30 AM66 °FPartly cloudy.1 mph83%30.18 "HgN/A
6:00 AM66 °FPartly cloudy.1 mph83%30.18 "HgN/A
5:30 AM66 °FPartly cloudy.1 mph83%30.18 "HgN/A
5:00 AM66 °FPartly cloudy.1 mph83%30.18 "HgN/A
4:30 AM66 °FPassing clouds.2 mph83%30.18 "Hg4 mi
4:00 AM68 °FPassing clouds.2 mph78%30.21 "Hg5 mi
3:30 AM68 °FPartly cloudy.2 mph83%30.21 "Hg4 mi
3:00 AM68 °FPassing clouds.1 mph78%30.21 "Hg5 mi
2:30 AM68 °FPassing clouds.1 mph78%30.21 "Hg5 mi
2:00 AM68 °FPassing clouds.2 mph78%30.21 "Hg5 mi
Weather by CustomWeather, © 2016

See weather overviewHow to use our weather pages